GW5522 Weather Reports


time (UTC)temp
F
wind
direction
speed
knots
gust
knots
rain 1hr
in
rain 24hr
in
rain mn
in
humidity
%
barometer
mb
20260503200414 61 306 1.7 5.2 0.00 0.00 0.00 38 1014.0
20260503195914 61 245 2.6 4.3 0.00 0.00 0.00 38 1014.0
20260503195415 62 279 1.7 5.2 0.00 0.00 0.00 37 1014.0
20260503194914 61 282 2.6 7.0 0.00 0.00 0.00 36 1014.0
20260503194415 60 215 3.5 5.2 0.00 0.00 0.00 38 1014.0
20260503193914 61 326 3.5 7.8 0.00 0.00 0.00 37 1014.0
20260503193415 61 209 0.9 3.5 0.00 0.00 0.00 39 1014.0
20260503192915 61 330 1.7 4.3 0.00 0.00 0.00 38 1014.0
20260503192414 60 330 0.9 3.5 0.00 0.00 0.00 40 1014.0
20260503191914 61 303 1.7 3.5 0.00 0.00 0.00 40 1014.0
20260503191415 61 204 3.5 7.0 0.00 0.00 0.00 40 1014.0
20260503190915 62 214 1.7 5.2 0.00 0.00 0.00 38 1015.0
20260503190415 62 297 0.0 1.7 0.00 0.00 0.00 38 1015.0
20260503185914 62 322 2.6 6.1 0.00 0.00 0.00 37 1015.0
20260503185414 62 306 2.6 7.0 0.00 0.00 0.00 38 1015.0
20260503184914 62 266 1.7 5.2 0.00 0.00 0.00 37 1015.0
20260503184415 61 320 2.6 7.0 0.00 0.00 0.00 40 1015.0
20260503183914 61 213 0.9 3.5 0.00 0.00 0.00 42 1015.0
20260503183415 61 318 2.6 5.2 0.00 0.00 0.00 39 1015.0
20260503182915 60 209 3.5 5.2 0.00 0.00 0.00 40 1015.0
20260503182415 60 213 3.5 7.8 0.00 0.00 0.00 40 1015.0
20260503181915 61 345 1.7 5.2 0.00 0.00 0.00 39 1015.0
20260503181414 61 4 1.7 3.5 0.00 0.00 0.00 40 1015.0
20260503180914 61 168 1.7 5.2 0.00 0.00 0.00 40 1015.0
20260503180414 61 344 1.7 3.5 0.00 0.00 0.00 39 1015.0
20260503175914 60 312 1.7 3.5 0.00 0.00 0.00 41 1015.0
20260503175417 60 222 5.2 7.0 0.00 0.00 0.00 39 1015.0
20260503174914 59 336 1.7 3.5 0.00 0.00 0.00 40 1015.0
20260503174414 59 1 0.9 3.5 0.00 0.00 0.00 43 1016.0
20260503173915 60 228 3.5 7.0 0.00 0.00 0.00 38 1015.0
20260503173414 60 243 1.7 4.3 0.00 0.00 0.00 40 1016.0
20260503172914 59 287 1.7 4.3 0.00 0.00 0.00 41 1016.0
20260503172414 59 247 3.5 6.1 0.00 0.00 0.00 41 1016.0
20260503171915 59 308 1.7 3.5 0.00 0.00 0.00 40 1015.0
20260503171414 59 320 1.7 4.3 0.00 0.00 0.00 40 1016.0
20260503170915 58 306 3.5 7.0 0.00 0.00 0.00 38 1016.0
20260503170417 57 306 1.7 3.5 0.00 0.00 0.00 42 1016.0
20260503150914 54 277 0.9 4.3 0.00 0.00 0.00 41 1017.0
20260503150415 54 274 1.7 3.5 0.00 0.00 0.00 40 1017.0
20260503131415 42 261 0.9 2.6 0.00 0.00 0.00 88 1018.0
20260503130914 41 224 1.7 3.5 0.00 0.00 0.00 96 1018.0
20260503130414 40 163 0.0 1.7 0.00 0.00 0.00 97 1018.0
20260503110414 30 0 0.0 0.0 0.00 0.00 0.00 100 1017.0
20260503090414 32 0 0.0 0.0 0.00 0.00 0.00 98 1016.0
20260503081415 32 0 0.0 0.0 0.00 0.00 0.00 98 1016.0
20260503080914 32 0 0.0 0.0 0.00 0.00 0.00 98 1016.0
20260503080414 32 0 0.0 0.0 0.00 0.00 0.00 98 1016.0
20260503072914 33 0 0.0 0.0 0.00 0.00 0.00 97 1016.0
20260503072414 33 0 0.0 0.0 0.00 0.00 0.00 98 1016.0
20260503071915 33 0 0.0 0.0 0.00 0.00 0.00 97 1016.0
20260503071415 33 0 0.0 0.0 0.00 0.00 0.00 97 1016.0
20260503070914 33 0 0.0 0.0 0.00 0.00 0.00 97 1016.0
20260503070415 34 0 0.0 0.0 0.00 0.00 0.00 97 1016.0
20260503054914 35 0 0.0 0.0 0.00 0.00 0.00 96 1016.0
20260503054415 35 0 0.0 0.0 0.00 0.00 0.00 96 1016.0
20260503053915 35 0 0.0 0.0 0.00 0.00 0.00 96 1016.0
20260503053415 35 0 0.0 0.0 0.00 0.00 0.00 96 1016.0
20260503052914 35 0 0.0 0.0 0.00 0.00 0.00 96 1016.0
20260503052414 35 0 0.0 0.0 0.00 0.00 0.00 96 1016.0
20260503051915 35 0 0.0 0.0 0.00 0.00 0.00 96 1016.0
20260503051414 35 0 0.0 0.0 0.00 0.00 0.00 96 1016.0
20260503050914 35 0 0.0 0.0 0.00 0.00 0.00 96 1016.0
20260503050414 36 0 0.0 0.0 0.00 0.00 0.00 95 1016.0
20260503045914 36 0 0.0 0.0 0.00 0.00 0.00 95 1016.0
20260503045414 36 0 0.0 0.0 0.00 0.00 0.00 95 1016.0
20260503044914 36 0 0.0 0.0 0.00 0.00 0.00 95 1016.0
20260503044414 36 0 0.0 0.0 0.00 0.00 0.00 95 1016.0
20260503043915 36 0 0.0 0.0 0.00 0.00 0.00 95 1016.0
20260503043415 36 0 0.0 0.0 0.00 0.00 0.00 95 1016.0
20260503042914 36 0 0.0 0.0 0.00 0.00 0.00 94 1016.0
20260503042414 36 0 0.0 0.0 0.00 0.00 0.00 94 1016.0
20260503041914 36 0 0.0 0.0 0.00 0.00 0.00 94 1016.0
20260503041415 36 0 0.0 0.0 0.00 0.00 0.00 94 1016.0
20260503040915 36 0 0.0 0.0 0.00 0.00 0.00 94 1016.0
20260503040414 36 0 0.0 0.0 0.00 0.00 0.00 94 1016.0
20260503035914 36 0 0.0 0.0 0.00 0.00 0.03 93 1016.0
20260503035414 36 0 0.0 0.0 0.00 0.00 0.03 93 1016.0
20260503034915 36 0 0.0 0.0 0.00 0.00 0.03 93 1016.0
20260503034414 36 0 0.0 0.0 0.00 0.00 0.03 93 1016.0
20260503033914 36 0 0.0 0.0 0.00 0.00 0.03 92 1016.0
20260503033414 36 0 0.0 0.0 0.00 0.00 0.03 92 1016.0
20260503032915 36 0 0.0 0.0 0.00 0.00 0.03 91 1016.0
20260503032415 36 0 0.0 0.0 0.00 0.00 0.03 91 1016.0
20260503031914 36 0 0.0 0.0 0.00 0.00 0.03 91 1016.0
20260503031414 36 0 0.0 0.0 0.00 0.00 0.03 90 1016.0
20260503030914 36 0 0.0 0.0 0.00 0.00 0.03 89 1016.0
20260503030414 37 0 0.0 0.0 0.00 0.00 0.03 88 1016.0
20260503025915 37 0 0.0 0.0 0.00 0.00 0.03 87 1016.0
20260503025414 37 0 0.0 0.0 0.00 0.00 0.03 87 1016.0
20260503024915 37 0 0.0 0.0 0.00 0.00 0.03 86 1016.0
20260503024414 38 0 0.0 0.0 0.00 0.00 0.03 85 1016.0
20260503023914 38 0 0.0 0.0 0.00 0.00 0.03 84 1016.0
20260503023414 38 0 0.0 0.0 0.00 0.00 0.03 81 1016.0
20260503022914 39 0 0.0 0.0 0.00 0.00 0.03 79 1016.0
20260503022414 39 0 0.0 0.0 0.00 0.00 0.03 78 1016.0
20260503021915 40 0 0.0 0.0 0.00 0.00 0.03 78 1016.0
20260503021414 40 0 0.0 0.0 0.00 0.00 0.03 77 1016.0
20260503020914 40 0 0.0 0.0 0.00 0.00 0.03 76 1016.0
20260503020414 40 0 0.0 0.0 0.00 0.00 0.03 76 1017.0
20260503015914 40 0 0.0 0.0 0.00 0.00 0.03 74 1017.0
20260503015414 40 356 0.0 1.7 0.00 0.00 0.03 73 1017.0
20260503014914 40 329 0.0 0.9 0.00 0.00 0.03 74 1017.0
20260503014415 40 0 0.0 0.0 0.00 0.00 0.03 74 1017.0
20260503013914 40 323 0.0 0.9 0.00 0.00 0.03 74 1017.0
20260503013415 40 0 0.0 0.0 0.00 0.00 0.03 75 1017.0
20260503012914 40 0 0.0 0.0 0.00 0.00 0.03 76 1017.0
20260503012414 40 324 0.0 0.9 0.00 0.00 0.03 76 1017.0
20260503011914 40 0 0.0 0.0 0.00 0.00 0.03 76 1017.0
20260503011414 40 0 0.0 0.0 0.00 0.00 0.03 75 1017.0
20260503010914 40 0 0.0 0.0 0.00 0.00 0.03 75 1016.0
20260503010414 41 0 0.0 0.0 0.00 0.00 0.03 74 1016.0
20260503005914 41 0 0.0 0.0 0.00 0.00 0.03 73 1016.0
20260503005418 41 0 0.0 0.0 0.00 0.00 0.03 72 1016.0
20260503004915 41 0 0.0 0.0 0.00 0.00 0.03 70 1016.0
20260503004414 41 0 0.0 0.0 0.00 0.00 0.03 69 1016.0
20260503003914 42 0 0.0 0.0 0.00 0.00 0.03 69 1016.0
20260503003414 42 0 0.0 0.0 0.00 0.00 0.03 68 1016.0
20260503002914 42 302 0.0 0.9 0.00 0.00 0.03 68 1016.0
20260503002414 42 13 0.0 0.9 0.00 0.00 0.03 69 1016.0
20260503001914 42 343 0.9 3.5 0.00 0.00 0.03 69 1016.0
20260503001414 42 353 0.9 2.6 0.00 0.00 0.03 70 1016.0
20260503000915 42 46 0.0 1.7 0.00 0.00 0.03 68 1016.0
20260503000415 42 51 1.7 1.7 0.00 0.00 0.03 68 1016.0
20260502235914 42 0 0.0 0.0 0.00 0.00 0.03 69 1016.0
20260502235414 43 0 0.9 2.6 0.00 0.00 0.03 67 1016.0
20260502234915 43 311 0.0 1.7 0.00 0.00 0.03 66 1016.0
20260502234414 43 0 0.0 0.0 0.00 0.00 0.03 66 1016.0
20260502233914 43 0 0.0 0.0 0.00 0.00 0.03 65 1016.0
20260502233414 43 311 0.9 1.7 0.00 0.00 0.03 65 1016.0
20260502232914 43 345 0.0 0.9 0.00 0.00 0.03 65 1016.0
20260502232414 43 17 0.9 4.3 0.00 0.00 0.03 64 1016.0
20260502231914 43 19 1.7 3.5 0.00 0.00 0.03 63 1016.0
20260502231414 43 17 2.6 5.2 0.00 0.00 0.03 63 1016.0
20260502230914 43 0 0.0 0.0 0.00 0.00 0.03 63 1016.0
20260502230415 43 9 0.0 1.7 0.00 0.00 0.03 64 1016.0
20260502225915 44 13 0.9 3.5 0.00 0.00 0.03 63 1016.0
20260502225414 44 22 1.7 3.5 0.00 0.00 0.03 63 1016.0
20260502224914 44 357 0.9 3.5 0.00 0.00 0.03 64 1016.0
20260502224415 44 13 0.0 0.9 0.00 0.00 0.03 64 1016.0
20260502223914 44 26 2.6 4.3 0.00 0.00 0.03 65 1016.0
20260502223415 44 327 1.7 1.7 0.00 0.00 0.03 64 1016.0
20260502222914 44 300 0.0 1.7 0.00 0.00 0.03 65 1016.0
20260502222415 44 1 0.0 1.7 0.00 0.00 0.03 64 1016.0
20260502221915 44 22 0.9 2.6 0.00 0.00 0.03 63 1016.0
20260502221414 45 265 0.0 0.9 0.00 0.00 0.03 65 1016.0
20260502220914 45 346 0.9 1.7 0.00 0.00 0.03 64 1016.0
20260502220415 44 1 0.9 2.6 0.00 0.00 0.03 65 1016.0
20260502215914 45 12 1.7 4.3 0.00 0.00 0.03 64 1016.0
20260502215414 45 314 0.0 1.7 0.00 0.00 0.03 64 1016.0
20260502214914 44 304 0.9 2.6 0.00 0.00 0.03 65 1016.0
20260502214417 44 337 0.0 1.7 0.00 0.00 0.03 66 1016.0
20260502213914 44 305 1.7 3.5 0.00 0.00 0.03 67 1016.0
20260502213415 44 16 2.6 4.3 0.00 0.00 0.03 68 1016.0
20260502212914 44 17 1.7 3.5 0.00 0.00 0.03 69 1016.0
20260502212414 44 0 0.0 0.0 0.00 0.00 0.03 70 1016.0
20260502211914 44 302 0.0 0.9 0.00 0.00 0.03 70 1016.0
20260502211414 44 359 0.9 2.6 0.00 0.00 0.03 70 1016.0
20260502210914 44 14 0.9 2.6 0.00 0.00 0.03 70 1016.0
20260502210414 44 350 0.9 3.5 0.00 0.00 0.03 71 1016.0
20260502205915 43 359 0.9 1.7 0.00 0.00 0.03 72 1016.0
20260502205415 43 311 0.0 2.6 0.00 0.00 0.03 72 1016.0
20260502204914 43 288 1.7 3.5 0.00 0.00 0.03 73 1016.0
20260502204415 43 0 0.0 0.0 0.00 0.00 0.03 73 1016.0
20260502203914 43 41 3.5 4.3 0.00 0.00 0.03 72 1016.0
20260502203414 43 330 0.0 0.9 0.00 0.00 0.03 73 1016.0
20260502202915 43 43 0.0 1.7 0.00 0.00 0.03 72 1016.0
20260502202415 43 88 0.9 1.7 0.00 0.00 0.03 72 1016.0
20260502201915 43 44 1.7 2.6 0.00 0.00 0.03 71 1016.0
20260502201414 43 7 0.0 1.7 0.00 0.00 0.03 70 1016.0
20260502200915 43 13 3.5 6.1 0.00 0.00 0.03 70 1016.0